Location: Kellogg
(38.0159°N, 90.0546°W)
Time: 15:55:33
(UTC+00:00)

Courier 1B - Pass Details

Date: 07 September 2024
Orbit: 962 x 1208 km, 28.3° (Epoch: 07 October)

Event Time Altitude Azimuth Distance (km) Brightness Sun altitude
Rises 21:46:33 0° 218° (SW) 4,030 11.5 29.0°
Reaches altitude 10° 21:50:04 10° 204° (SSW) 3,098 10.8 28.4°
Maximum altitude 21:55:41 22° 157° (SSE) 2,353 9.6 27.3°
Drops below altitude 10° 22:01:21 10° 110° (ESE) 3,141 9.8 26.2°
Sets 22:04:56 0° 96° (E) 4,100 10.2 25.6°
